[[{"header":{"parameterUnit":"m.s-1","parameterCategory":1,"la1":30.2991,"la2":30.254,"lo1":-89.0895,"lo2":-89.0444,"dy":0.0017,"dx":0.0017,"nx":28,"ny":28,"refTime":"2025-04-23T21:00:00:Z","depth":0,"parameterNumber":2,"parameterNumberName":"U-component_of_WINDS"},"data":[0,0,0,0,0,0,0,0,0,0,0,0,0,0,0,0,0,0,0,0,0,0,0,0,0,0,0,0,0,0,0,0,0,0,0,0,0,0,0,0,0,0,0,0,0,0,0,0,0,0,0,0,0,0,0,0,0,0,-3.0524,-3.0524,0,-3.0511,-3.0511,-3.0511,-3.0453,-3.0451,-3.045,-3.0449,-3.0436,-3.0437,-3.0438,0,0,0,0,0,0,0,0,0,0,0,0,0,-3.0501,-3.0502,-3.0524,-3.0524,-3.0524,-3.0511,-3.0511,-3.0511,-3.0453,-3.0451,-3.0449,-3.0448,-3.0436,-3.0437,-3.0438,0,0,0,0,0,0,0,0,0,0,0,0,0,-3.0502,-3.0502,-3.0524,-3.0493,-3.049,-3.0511,-3.0511,-3.0511,-3.0453,-3.0451,-3.0449,-3.0447,-3.0435,-3.0437,-3.0438,-3.0488,0,0,-3.0443,-3.0443,0,0,0,0,0,0,0,0,-3.0502,-3.0503,-3.0498,-3.0496,-3.0492,-3.0481,-3.0498,-3.0503,-3.0454,-3.0467,-3.0448,-3.0446,-3.0453,-3.0453,-3.0455,-3.0487,-3.0487,-3.0443,-3.0444,-3.0444,-3.0445,0,0,0,0,0,0,0,-3.0502,-3.0503,-3.0519,-3.0498,-3.0495,-3.0481,-3.0479,-3.0499,-3.0472,-3.0466,-3.0462,-3.0461,-3.0451,-3.0454,-3.0454,-3.0486,-3.0443,-3.0444,-3.0445,-3.0445,-3.056,-3.0562,0,0,0,0,0,0,-3.0506,-3.0504,-3.0519,-3.0518,-3.0492,-3.0483,-3.0481,-3.0487,-3.0471,-3.0467,-3.0463,-3.0458,-3.0452,-3.0452,-3.0453,-3.051,-3.0444,-3.0445,-3.0446,-3.0557,-3.056,-3.0562,0,0,0,0,0,0,-3.0506,-3.0508,-3.052,-3.051,-3.051,-3.0486,-3.0493,-3.0488,-3.049,-3.0469,-3.0464,-3.047,-3.0451,-3.0451,-3.048,-3.0509,-3.0446,-3.0447,-3.0555,-3.0558,-3.0561,-3.0624,0,0,0,0,0,0,-3.0506,-3.0508,-3.0526,-3.0511,-3.0511,-3.0546,-3.0495,-3.0489,-3.0493,-3.0487,-3.0474,-3.0471,-3.0449,-3.0478,-3.0481,-3.051,-3.0448,-3.0552,-3.0556,-3.056,-3.0619,-3.0629,-3.0638,0,0,0,0,0,-3.0505,-3.0545,-3.0527,-3.053,-3.0533,-3.0548,-3.0548,-3.0522,-3.0495,-3.0513,-3.05,-3.0471,-3.0506,-3.0481,-3.0484,-3.0514,-3.055,-3.0555,-3.056,-3.0615,-3.0627,-3.0638,0,0,0,0,0,0,-3.0564,-3.0542,-3.0523,-3.0558,-3.0555,-3.0538,-3.0559,-3.0535,-3.054,-3.0534,-3.0503,-3.05,-3.0533,-3.0527,-3.05,-3.0561,-3.0523,-3.0529,-3.0564,-3.0575,-3.0584,-3.0585,-3.045,0,0,0,0,0,-3.0581,-3.0595,-3.0575,-3.0608,-3.0608,-3.0584,-3.059,-3.057,-3.0566,-3.0564,-3.0553,-3.055,-3.0561,-3.0568,-3.0576,-3.0619,-3.0616,-3.0641,-3.065,-3.0658,-3.0663,-3.0685,-3.0696,-3.0579,-3.0579,-3.0579,0,0,-3.0617,-3.0607,-3.0617,-3.062,-3.0615,-3.063,-3.0583,-3.0601,-3.0612,-3.0567,-3.0593,-3.0585,-3.058,-3.0616,-3.0631,-3.0611,-3.0695,-3.0664,-3.067,-3.0671,-3.0691,-3.0703,-3.0713,-3.0582,-3.0581,-3.0581,0,0,-3.0689,-3.0683,-3.071,-3.0707,-3.07,-3.0685,-3.0692,-3.0678,-3.0671,-3.0696,-3.0663,-3.0676,-3.0695,-3.0692,-3.0694,-3.0768,-3.0741,-3.0772,-3.0819,-3.0841,-3.0851,-3.0859,-3.0885,-3.0894,-3.0777,-3.0777,-3.0777,0,-3.0734,-3.0755,-3.0727,-3.0747,-3.075,-3.071,-3.0738,-3.0736,-3.0734,-3.0737,-3.0715,-3.0737,-3.0731,-3.0766,-3.0785,-3.0787,-3.0794,-3.0772,-3.0851,-3.0859,-3.0866,-3.0891,-3.0901,-3.0781,-3.0781,-3.078,-3.078,0,-3.081,-3.0826,-3.0849,-3.0846,-3.0852,-3.0876,-3.0853,-3.0862,-3.0843,-3.083,-3.0857,-3.0849,-3.0855,-3.0862,-3.0844,-3.0895,-3.0883,-3.0857,-3.0817,-3.0882,-3.0904,-3.0913,-3.0786,-3.0785,-3.0784,-3.0783,0,0,-3.0917,-3.0901,-3.091,-3.0909,-3.09,-3.0911,-3.0934,-3.094,-3.0949,-3.0949,-3.0967,-3.0985,-3.0961,-3.0963,-3.0944,-3.0964,-3.1023,-3.0935,-3.0935,-3.0951,-3.1079,-3.1097,-3.1109,-3.1006,-3.1008,-3.1009,-3.1079,0,-3.0986,-3.1023,-3.0999,-3.104,-3.1054,-3.1018,-3.1038,-3.1036,-3.1025,-3.1036,-3.1024,-3.1037,-3.1005,-3.1005,-3.1024,-3.1012,-3.1048,-3.1006,-3.1023,-3.1024,-3.1023,-3.112,-3.114,-3.1206,-3.1088,-3.1089,-3.109,0,-3.1069,-3.1073,-3.1116,-3.1105,-3.111,-3.1128,-3.1132,-3.1143,-3.114,-3.1131,-3.1134,-3.1111,-3.1133,-3.1096,-3.1126,-3.1099,-3.1105,-3.11,-3.1102,-3.1101,-3.106,-3.1121,-3.1227,-3.1236,-3.1104,-3.1103,-3.1102,0,-3.1142,-3.1158,-3.1186,-3.1186,-3.1174,-3.1188,-3.1184,-3.1179,-3.1184,-3.1189,-3.1192,-3.1199,-3.1203,-3.1209,-3.1189,-3.1163,-3.1222,-3.1183,-3.1215,-3.1216,-3.1228,-3.1227,-3.1334,-3.1234,-3.1234,-3.1234,-3.1233,0,-3.122,-3.1248,-3.1218,-3.1235,-3.1265,-3.1239,-3.127,-3.1262,-3.1258,-3.1273,-3.1243,-3.1258,-3.1231,-3.1243,-3.1228,-3.1256,-3.1258,-3.1251,-3.1247,-3.1253,-3.1254,-3.1255,-3.125,-3.1236,-3.1236,-3.1235,-3.1235,0,-3.1306,-3.1287,-3.1315,-3.1302,-3.13,-3.1322,-3.1312,-3.1327,-3.1315,-3.1335,-3.1338,-3.1319,-3.1333,-3.1314,-3.1325,-3.1315,-3.1353,-3.1342,-3.1354,-3.135,-3.1383,-3.138,-3.1494,-3.1508,-3.1399,-3.14,-3.1401,0,-3.1356,-3.1376,-3.1366,-3.1374,-3.1372,-3.1385,-3.139,-3.1367,-3.1374,-3.1372,-3.1388,-3.1399,-3.1406,-3.143,-3.1417,-3.1426,-3.1415,-3.1454,-3.1416,-3.1422,-3.1414,-3.1413,-3.1415,-3.1461,-3.1463,-3.1464,-3.1465,0,-3.1447,-3.1437,-3.1446,-3.1453,-3.146,-3.1464,-3.1466,-3.1474,-3.1449,-3.1459,-3.1472,-3.1478,-3.149,-3.1502,-3.1508,-3.1504,-3.1481,-3.1477,-3.1485,-3.1491,-3.1497,-3.1494,-3.1374,-3.1474,-3.1473,-3.1473,-3.1472,-3.1472,-3.1516,-3.1532,-3.1528,-3.1539,-3.1538,-3.1541,-3.1555,-3.1545,-3.1556,-3.1563,-3.1549,-3.1566,-3.1564,-3.1569,-3.1569,-3.1582,-3.1565,-3.1576,-3.1579,-3.1582,-3.1587,-3.1496,-3.1583,-3.1583,-3.1583,-3.1582,-3.1582,0,-3.1605,-3.1601,-3.1611,-3.1615,-3.1624,-3.1602,-3.1603,-3.1612,-3.1628,-3.1627,-3.1635,-3.1651,-3.1663,-3.1652,-3.1661,-3.1674,-3.1664,-3.1677,-3.1675,-3.1675,-3.1602,-3.1594,-3.1686,-3.1686,-3.1686,-3.1686,-3.1686,-3.1686,-3.1652,-3.1679,-3.1669,-3.1695,-3.1691,-3.1707,-3.171,-3.1712,-3.1712,-3.1731,-3.174,-3.1733,-3.1729,-3.1738,-3.1748,-3.1744,-3.1749,-3.1766,-3.1759,-3.169,-3.168,-3.167,-3.1663,-3.1768,-3.1768,-3.1831,-3.1832,-3.1832]},{"header":{"parameterUnit":"m.s-1","parameterCategory":1,"la1":30.2991,"la2":30.254,"lo1":-89.0895,"lo2":-89.0444,"dy":0.0017,"dx":0.0017,"nx":28,"ny":28,"refTime":"2025-04-23T21:00:00:Z","depth":0,"parameterNumber":3,"parameterNumberName":"V-component_of_WINDS"},"data":[0,0,0,0,0,0,0,0,0,0,0,0,0,0,0,0,0,0,0,0,0,0,0,0,0,0,0,0,0,0,0,0,0,0,0,0,0,0,0,0,0,0,0,0,0,0,0,0,0,0,0,0,0,0,0,0,0,0,2.9751,2.9751,0,2.9802,2.9802,2.9803,2.981,2.9809,2.9809,2.9808,2.9857,2.9859,2.986,0,0,0,0,0,0,0,0,0,0,0,0,0,2.9659,2.9661,2.9751,2.9751,2.9752,2.9801,2.9802,2.9803,2.981,2.9809,2.9808,2.9808,2.9856,2.9858,2.986,0,0,0,0,0,0,0,0,0,0,0,0,0,2.9703,2.9661,2.9751,2.9762,2.9763,2.9801,2.9802,2.9803,2.981,2.9809,2.9808,2.9808,2.9856,2.9858,2.9861,2.9891,0,0,2.9869,2.987,0,0,0,0,0,0,0,0,2.9701,2.9706,2.9759,2.9761,2.9763,2.9799,2.9788,2.9832,2.981,2.9792,2.9808,2.9807,2.9838,2.9842,2.9853,2.9893,2.9895,2.9869,2.987,2.9872,2.9872,0,0,0,0,0,0,0,2.9698,2.9704,2.9771,2.976,2.9762,2.9764,2.9769,2.9796,2.9818,2.9793,2.9794,2.98,2.9839,2.985,2.9854,2.9896,2.9869,2.9871,2.9873,2.9874,2.9965,2.9966,0,0,0,0,0,0,2.9693,2.9702,2.9769,2.9772,2.9729,2.9766,2.9772,2.9788,2.9818,2.9822,2.9801,2.98,2.9846,2.9851,2.9856,2.9894,2.9872,2.9874,2.9875,2.9965,2.9966,2.9967,0,0,0,0,0,0,2.9691,2.9699,2.9767,2.9737,2.9746,2.9768,2.9786,2.9789,2.9801,2.9823,2.9827,2.9809,2.9846,2.9852,2.9883,2.9896,2.9875,2.9877,2.9963,2.9965,2.9966,2.997,0,0,0,0,0,0,2.9688,2.9698,2.971,2.9738,2.9748,2.9794,2.9787,2.9791,2.9806,2.9806,2.9832,2.9835,2.9846,2.9879,2.9885,2.9899,2.988,2.9962,2.9964,2.9966,2.9969,2.9972,2.9974,0,0,0,0,0,2.9685,2.9708,2.971,2.9718,2.9763,2.9794,2.98,2.9812,2.9807,2.9819,2.9834,2.9835,2.9894,2.9882,2.9889,2.9904,2.9962,2.9964,2.9965,2.9968,2.9971,2.9974,0,0,0,0,0,0,2.9679,2.9711,2.9715,2.9747,2.9768,2.9795,2.9811,2.9815,2.9837,2.9836,2.9849,2.9855,2.9885,2.9898,2.9884,2.9936,2.9927,2.9931,2.9926,2.9929,2.9932,2.9928,2.9882,0,0,0,0,0,2.9682,2.9705,2.9732,2.9758,2.9769,2.9788,2.9802,2.981,2.9832,2.984,2.9857,2.9878,2.9901,2.9916,2.9939,2.9971,2.9978,2.9985,2.9988,2.9989,2.9992,3.0012,3.0016,2.9973,2.9973,2.9973,0,0,2.9687,2.9708,2.9721,2.9758,2.9775,2.9799,2.9795,2.982,2.9838,2.9844,2.9874,2.9888,2.9912,2.9944,2.9959,2.9955,3.0006,2.9992,2.9993,2.9995,3.0014,3.0018,3.0022,2.9974,2.9974,2.9974,0,0,2.9709,2.9727,2.9752,2.977,2.9797,2.981,2.9816,2.9843,2.9853,2.9884,2.989,2.9911,2.995,2.9968,2.9982,3.0014,3.0016,3.0021,3.0032,3.0052,3.0055,3.0058,3.007,3.0074,3.0023,3.0023,3.0023,0,2.9712,2.9749,2.9763,2.9789,2.9805,2.9814,2.9839,2.9856,2.9888,2.9899,2.9895,2.9946,2.9962,3.0,3.0008,3.0019,3.0026,3.0017,3.0054,3.0057,3.006,3.0072,3.0076,3.0024,3.0024,3.0024,3.0024,0,2.9752,2.9777,2.9794,2.9827,2.9845,2.987,2.9889,2.9906,2.9913,2.9926,2.9959,2.998,3.0007,3.0017,3.0023,3.0056,3.0053,3.0051,3.0042,3.0064,3.0076,3.008,3.0024,3.0024,3.0024,3.0024,0,0,2.9769,2.9813,2.9818,2.9834,2.9866,2.9886,2.9912,2.9941,2.9955,2.9978,3.0,3.0035,3.0035,3.0051,3.0059,3.0076,3.0102,3.0072,3.0073,3.0077,3.014,3.0141,3.0146,3.0104,3.0105,3.0105,3.0138,0,2.9795,2.9843,2.9859,2.9898,2.9923,2.9933,2.9956,2.9978,2.9992,3.0014,3.003,3.0055,3.0051,3.0061,3.0079,3.0095,3.0114,3.0093,3.0125,3.0126,3.0118,3.0152,3.0153,3.0183,3.0143,3.0143,3.0144,0,2.9832,2.9857,2.99,2.9931,2.9942,2.9962,2.9991,3.0013,3.0038,3.0047,3.0067,3.0075,3.0103,3.0093,3.0133,3.0118,3.0132,3.0142,3.0144,3.0147,3.0136,3.0156,3.0192,3.0197,3.0151,3.015,3.015,0,2.9841,2.9886,2.9918,2.9932,2.9968,2.9982,2.9998,3.0023,3.004,3.0065,3.0077,3.0104,3.0119,3.014,3.0155,3.0147,3.0194,3.0185,3.0202,3.0202,3.0211,3.021,3.025,3.022,3.022,3.022,3.022,0,2.9869,2.9895,2.9923,2.9943,2.9973,2.9991,3.0019,3.0035,3.0058,3.0081,3.0091,3.0112,3.0131,3.0155,3.0167,3.0199,3.0205,3.0213,3.0216,3.0213,3.0212,3.0222,3.022,3.0221,3.0221,3.0221,3.022,0,2.9884,2.9904,2.994,2.9973,2.9981,3.0002,3.003,3.0049,3.0065,3.0094,3.0102,3.0126,3.0155,3.0173,3.0209,3.0217,3.0252,3.0254,3.0243,3.0245,3.0261,3.0259,3.0309,3.0316,3.0281,3.0281,3.0282,0,2.99,2.992,2.9956,2.9973,2.999,3.0016,3.0035,3.0053,3.0072,3.0104,3.012,3.015,3.0175,3.0221,3.0241,3.0269,3.0272,3.0288,3.0276,3.0273,3.0273,3.0272,3.0274,3.0289,3.029,3.029,3.029,0,2.9927,2.9936,2.9963,2.9994,3.0016,3.0041,3.0065,3.0078,3.0101,3.0122,3.0152,3.0172,3.021,3.024,3.0271,3.0286,3.0292,3.0294,3.0299,3.0295,3.0289,3.0294,3.0249,3.0292,3.0292,3.0292,3.0292,3.0292,2.9943,2.9963,2.9992,3.0021,3.0043,3.0066,3.0087,3.0106,3.0132,3.0166,3.0176,3.0208,3.0235,3.0277,3.0293,3.0319,3.0316,3.0324,3.0326,3.0328,3.0329,3.0285,3.0324,3.0324,3.0324,3.0324,3.0324,0,2.9971,2.9991,3.0018,3.0054,3.0077,3.0083,3.0111,3.013,3.0159,3.0184,3.021,3.0246,3.0275,3.0299,3.033,3.0346,3.0349,3.0353,3.0352,3.0356,3.0328,3.0321,3.035,3.035,3.035,3.035,3.035,3.035,2.9988,3.0022,3.0036,3.0081,3.01,3.0133,3.0149,3.0171,3.0192,3.0232,3.0257,3.0273,3.0298,3.0331,3.0359,3.0365,3.0376,3.038,3.0386,3.036,3.0357,3.0355,3.0348,3.0382,3.0382,3.0412,3.0412,3.0412]}]]